Time,TemperatureF,DewpointF,PressureIn,WindDirection,WindDirectionDegrees,WindSpeedMPH,WindSpeedGustMPH,Humidity,HourlyPrecipIn,Conditions,Clouds,dailyrainin,SoftwareType,DateUTC
2013-03-23 00:02:00,51.0,11.0,29.76,WNW,303,11.0,15.0,20,0.00,,,0.00,,2013-03-23 07:02:00,
2013-03-23 00:11:00,51.0,11.0,29.76,WNW,303,11.0,15.0,20,0.00,,,0.00,,2013-03-23 07:11:00,
2013-03-23 00:21:00,51.0,11.0,29.76,NW,315,10.0,15.0,20,0.00,,,0.00,,2013-03-23 07:21:00,
2013-03-23 00:32:00,51.0,11.0,29.76,WNW,293,11.0,15.0,20,0.00,,,0.00,,2013-03-23 07:32:00,
2013-03-23 00:41:00,51.0,11.0,29.76,WNW,293,11.0,15.0,20,0.00,,,0.00,,2013-03-23 07:41:00,
2013-03-23 00:52:00,49.0,10.0,29.76,West,270,6.0,7.0,20,0.00,,,0.00,,2013-03-23 07:52:00,
2013-03-23 01:02:00,49.0,10.0,29.76,West,270,7.0,9.0,20,0.00,,,0.00,,2013-03-23 08:02:00,
2013-03-23 01:12:00,49.0,10.0,29.76,West,270,7.0,9.0,20,0.00,,,0.00,,2013-03-23 08:12:00,
2013-03-23 01:22:00,48.0,9.0,29.76,WSW,248,5.0,7.0,20,0.00,,,0.00,,2013-03-23 08:22:00,
2013-03-23 01:31:00,47.0,8.0,29.76,WSW,250,7.0,9.0,20,0.00,,,0.00,,2013-03-23 08:31:00,
2013-03-23 01:41:00,47.0,8.0,29.76,WSW,250,7.0,9.0,20,0.00,,,0.00,,2013-03-23 08:41:00,
2013-03-23 01:52:00,47.0,11.0,29.79,West,270,5.0,7.0,23,0.00,,,0.00,,2013-03-23 08:52:00,
2013-03-23 02:01:00,47.0,11.0,29.79,West,273,7.0,9.0,23,0.00,,,0.00,,2013-03-23 09:01:00,
2013-03-23 02:11:00,47.0,11.0,29.79,West,273,7.0,9.0,23,0.00,,,0.00,,2013-03-23 09:11:00,
2013-03-23 02:21:00,48.0,14.0,29.79,West,270,7.0,10.0,25,0.00,,,0.00,,2013-03-23 09:21:00,
2013-03-23 02:32:00,46.0,13.0,29.79,SW,225,1.0,5.0,26,0.00,,,0.00,,2013-03-23 09:32:00,
2013-03-23 02:42:00,46.0,13.0,29.79,SW,225,1.0,5.0,26,0.00,,,0.00,,2013-03-23 09:42:00,
2013-03-23 02:53:00,45.0,12.0,29.79,SW,225,2.0,6.0,26,0.00,,,0.00,,2013-03-23 09:53:00,
2013-03-23 03:02:00,45.0,14.0,29.79,SW,225,5.0,7.0,28,0.00,,,0.00,,2013-03-23 10:02:00,
2013-03-23 03:12:00,45.0,14.0,29.79,SW,225,5.0,7.0,28,0.00,,,0.00,,2013-03-23 10:12:00,
2013-03-23 03:22:00,46.0,13.0,29.76,SW,225,3.0,5.0,26,0.00,,,0.00,,2013-03-23 10:22:00,
2013-03-23 03:33:00,43.0,10.0,29.76,SW,225,2.0,5.0,26,0.00,,,0.00,,2013-03-23 10:33:00,
2013-03-23 03:41:00,43.0,10.0,29.76,SW,225,2.0,5.0,26,0.00,,,0.00,,2013-03-23 10:41:00,
2013-03-23 03:52:00,43.0,10.0,29.76,SW,225,3.0,5.0,26,0.00,,,0.00,,2013-03-23 10:52:00,
2013-03-23 04:02:00,43.0,10.0,29.76,SW,225,2.0,5.0,26,0.00,,,0.00,,2013-03-23 11:02:00,
2013-03-23 04:11:00,43.0,10.0,29.76,SW,225,2.0,5.0,26,0.00,,,0.00,,2013-03-23 11:11:00,
2013-03-23 04:21:00,42.0,10.0,29.76,SW,225,2.0,5.0,27,0.00,,,0.00,,2013-03-23 11:21:00,
2013-03-23 04:32:00,42.0,8.0,29.76,SW,225,3.0,6.0,24,0.00,,,0.00,,2013-03-23 11:32:00,
2013-03-23 04:52:00,43.0,10.0,29.76,SW,225,3.0,6.0,26,0.00,,,0.00,,2013-03-23 11:52:00,
2013-03-23 05:01:00,43.0,10.0,29.76,SW,225,2.0,5.0,26,0.00,,,0.00,,2013-03-23 12:01:00,
2013-03-23 05:11:00,43.0,10.0,29.76,SW,225,2.0,5.0,26,0.00,,,0.00,,2013-03-23 12:11:00,
2013-03-23 05:21:00,44.0,11.0,29.76,SW,225,5.0,6.0,26,0.00,,,0.00,,2013-03-23 12:21:00,
2013-03-23 05:32:00,43.0,10.0,29.76,SW,225,4.0,6.0,26,0.00,,,0.00,,2013-03-23 12:32:00,
2013-03-23 05:42:00,43.0,10.0,29.76,SW,225,4.0,6.0,26,0.00,,,0.00,,2013-03-23 12:42:00,
2013-03-23 05:52:00,43.0,10.0,29.76,SW,225,3.0,6.0,26,0.00,,,0.00,,2013-03-23 12:52:00,
2013-03-23 06:01:00,43.0,10.0,29.76,SW,225,3.0,6.0,26,0.00,,,0.00,,2013-03-23 13:01:00,
2013-03-23 06:11:00,43.0,10.0,29.76,SW,225,3.0,6.0,26,0.00,,,0.00,,2013-03-23 13:11:00,
2013-03-23 06:21:00,43.0,10.0,29.76,SW,225,2.0,3.0,26,0.00,,,0.00,,2013-03-23 13:21:00,
2013-03-23 06:32:00,42.0,10.0,29.76,SW,225,1.0,2.0,27,0.00,,,0.00,,2013-03-23 13:32:00,
2013-03-23 06:42:00,42.0,10.0,29.76,SW,225,1.0,2.0,27,0.00,,,0.00,,2013-03-23 13:42:00,
2013-03-23 06:53:00,41.0,10.0,29.79,SW,225,1.0,3.0,27,0.00,,,0.00,,2013-03-23 13:53:00,
2013-03-23 07:02:00,41.0,10.0,29.79,SW,225,2.0,3.0,27,0.00,,,0.00,,2013-03-23 14:02:00,
2013-03-23 07:11:00,41.0,10.0,29.79,SW,225,2.0,3.0,27,0.00,,,0.00,,2013-03-23 14:11:00,
2013-03-23 07:21:00,41.0,11.0,29.79,SW,225,2.0,3.0,29,0.00,,,0.00,,2013-03-23 14:21:00,
2013-03-23 07:31:00,41.0,11.0,29.79,SW,225,1.0,3.0,29,0.00,,,0.00,,2013-03-23 14:31:00,
2013-03-23 07:42:00,41.0,11.0,29.79,SW,225,1.0,3.0,29,0.00,,,0.00,,2013-03-23 14:42:00,
2013-03-23 07:52:00,44.0,11.0,29.79,SW,225,2.0,3.0,26,0.00,,,0.00,,2013-03-23 14:52:00,
2013-03-23 08:02:00,46.0,13.0,29.82,SW,225,0.0,0.0,26,0.00,,,0.00,,2013-03-23 15:02:00,
2013-03-23 08:11:00,46.0,13.0,29.82,SW,225,0.0,0.0,26,0.00,,,0.00,,2013-03-23 15:11:00,
2013-03-23 08:22:00,47.0,13.0,29.82,SW,225,2.0,5.0,25,0.00,,,0.00,,2013-03-23 15:22:00,
2013-03-23 08:32:00,50.0,13.0,29.82,SW,225,3.0,5.0,22,0.00,,,0.00,,2013-03-23 15:32:00,
2013-03-23 08:52:00,49.0,12.0,29.82,SW,225,3.0,5.0,22,0.00,,,0.00,,2013-03-23 15:52:00,
2013-03-23 09:03:00,49.0,12.0,29.82,SW,225,3.0,5.0,22,0.00,,,0.00,,2013-03-23 16:03:00,
2013-03-23 09:11:00,49.0,12.0,29.82,SW,225,3.0,5.0,22,0.00,,,0.00,,2013-03-23 16:11:00,
2013-03-23 09:22:00,54.0,15.0,29.85,SW,225,2.0,3.0,21,0.00,,,0.00,,2013-03-23 16:22:00,
2013-03-23 09:32:00,55.0,14.0,29.85,SW,225,2.0,3.0,19,0.00,,,0.00,,2013-03-23 16:32:00,
2013-03-23 09:43:00,55.0,14.0,29.85,SW,225,2.0,3.0,19,0.00,,,0.00,,2013-03-23 16:43:00,
2013-03-23 09:53:00,57.0,14.0,29.85,SW,225,1.0,3.0,18,0.00,,,0.00,,2013-03-23 16:53:00,
2013-03-23 10:01:00,58.0,15.0,29.88,SW,225,2.0,5.0,18,0.00,,,0.00,,2013-03-23 17:01:00,
2013-03-23 10:11:00,58.0,15.0,29.88,SW,225,1.0,5.0,18,0.00,,,0.00,,2013-03-23 17:11:00,
2013-03-23 10:21:00,58.0,15.0,29.88,SW,225,1.0,5.0,18,0.00,,,0.00,,2013-03-23 17:21:00,
2013-03-23 10:31:00,58.0,15.0,29.88,SW,225,1.0,5.0,18,0.00,,,0.00,,2013-03-23 17:31:00,
2013-03-23 10:42:00,58.0,15.0,29.88,SW,225,1.0,5.0,18,0.00,,,0.00,,2013-03-23 17:42:00,
2013-03-23 10:52:00,59.0,16.0,29.88,ESE,108,11.0,13.0,18,0.00,,,0.00,,2013-03-23 17:52:00,
2013-03-23 11:02:00,59.0,16.0,29.88,East,94,12.0,18.0,18,0.00,,,0.00,,2013-03-23 18:02:00,
2013-03-23 11:12:00,59.0,16.0,29.88,East,94,12.0,18.0,18,0.00,,,0.00,,2013-03-23 18:12:00,
2013-03-23 11:22:00,59.0,16.0,29.88,East,86,14.0,17.0,18,0.00,,,0.00,,2013-03-23 18:22:00,
2013-03-23 11:31:00,59.0,16.0,29.88,East,86,14.0,17.0,18,0.00,,,0.00,,2013-03-23 18:31:00,
2013-03-23 11:41:00,59.0,16.0,29.88,East,86,14.0,17.0,18,0.00,,,0.00,,2013-03-23 18:41:00,
2013-03-23 11:52:00,61.0,17.0,29.85,ENE,69,13.0,17.0,18,0.00,,,0.00,,2013-03-23 18:52:00,
2013-03-23 12:02:00,60.0,16.0,29.88,East,90,17.0,20.0,18,0.00,,,0.00,,2013-03-23 19:02:00,
2013-03-23 12:12:00,60.0,16.0,29.88,East,90,17.0,20.0,18,0.00,,,0.00,,2013-03-23 19:12:00,
2013-03-23 12:22:00,61.0,16.0,29.85,East,90,14.0,20.0,17,0.00,,,0.00,,2013-03-23 19:22:00,
2013-03-23 12:31:00,62.0,17.0,29.88,East,90,13.0,17.0,17,0.00,,,0.00,,2013-03-23 19:31:00,
2013-03-23 12:42:00,62.0,17.0,29.88,East,90,13.0,17.0,17,0.00,,,0.00,,2013-03-23 19:42:00,
2013-03-23 12:52:00,62.0,17.0,29.88,East,90,10.0,17.0,17,0.00,,,0.00,,2013-03-23 19:52:00,
2013-03-23 13:02:00,62.0,17.0,29.88,East,84,13.0,18.0,17,0.00,,,0.00,,2013-03-23 20:02:00,
2013-03-23 13:11:00,62.0,17.0,29.88,East,84,13.0,18.0,17,0.00,,,0.00,,2013-03-23 20:11:00,
2013-03-23 13:22:00,63.0,18.0,29.88,East,90,10.0,15.0,17,0.00,,,0.00,,2013-03-23 20:22:00,
2013-03-23 13:31:00,64.0,18.0,29.88,East,90,12.0,16.0,17,0.00,,,0.00,,2013-03-23 20:31:00,
2013-03-23 13:52:00,64.0,17.0,29.88,East,83,10.0,15.0,16,0.00,,,0.00,,2013-03-23 20:52:00,
2013-03-23 14:21:00,65.0,18.0,29.85,East,90,12.0,15.0,16,0.00,,,0.00,,2013-03-23 21:21:00,
2013-03-23 14:32:00,65.0,18.0,29.85,East,79,10.0,14.0,16,0.00,,,0.00,,2013-03-23 21:32:00,
2013-03-23 14:53:00,65.0,18.0,29.85,East,92,8.0,13.0,16,0.00,,,0.00,,2013-03-23 21:53:00,
2013-03-23 15:02:00,65.0,18.0,29.85,NE,45,8.0,14.0,16,0.00,,,0.00,,2013-03-23 22:02:00,
2013-03-23 15:22:00,65.0,18.0,29.85,East,90,10.0,14.0,16,0.00,,,0.00,,2013-03-23 22:22:00,
2013-03-23 15:32:00,66.0,19.0,29.85,ENE,78,9.0,13.0,16,0.00,,,0.00,,2013-03-23 22:32:00,
2013-03-23 16:01:00,66.0,19.0,29.85,East,90,8.0,14.0,16,0.00,,,0.00,,2013-03-23 23:01:00,
2013-03-23 16:22:00,67.0,19.0,29.82,ENE,59,7.0,12.0,16,0.00,,,0.00,,2013-03-23 23:22:00,
2013-03-23 16:32:00,66.0,19.0,29.82,NE,45,7.0,13.0,16,0.00,,,0.00,,2013-03-23 23:32:00,
2013-03-23 16:52:00,66.0,19.0,29.82,East,89,7.0,10.0,16,0.00,,,0.00,,2013-03-23 23:52:00,
2013-03-23 17:01:00,66.0,19.0,29.82,NE,45,9.0,13.0,16,0.00,,,0.00,,2013-03-24 00:01:00,
2013-03-23 17:21:00,66.0,19.0,29.82,East,87,6.0,13.0,16,0.00,,,0.00,,2013-03-24 00:21:00,
2013-03-23 17:32:00,66.0,19.0,29.82,East,90,6.0,10.0,16,0.00,,,0.00,,2013-03-24 00:32:00,
2013-03-23 17:52:00,67.0,19.0,29.82,East,90,6.0,8.0,16,0.00,,,0.00,,2013-03-24 00:52:00,
2013-03-23 18:01:00,66.0,19.0,29.82,ENE,70,6.0,9.0,16,0.00,,,0.00,,2013-03-24 01:01:00,
2013-03-23 18:21:00,65.0,18.0,29.82,East,90,6.0,9.0,16,0.00,,,0.00,,2013-03-24 01:21:00,
2013-03-23 18:31:00,65.0,18.0,29.82,East,90,7.0,9.0,16,0.00,,,0.00,,2013-03-24 01:31:00,
2013-03-23 18:52:00,63.0,18.0,29.82,East,90,6.0,8.0,17,0.00,,,0.00,,2013-03-24 01:52:00,
2013-03-23 19:01:00,62.0,17.0,29.82,East,90,3.0,6.0,17,0.00,,,0.00,,2013-03-24 02:01:00,
2013-03-23 19:21:00,61.0,16.0,29.82,East,90,5.0,6.0,17,0.00,,,0.00,,2013-03-24 02:21:00,
2013-03-23 19:31:00,60.0,16.0,29.82,East,90,3.0,5.0,18,0.00,,,0.00,,2013-03-24 02:31:00,
2013-03-23 19:52:00,59.0,16.0,29.82,East,90,3.0,5.0,18,0.00,,,0.00,,2013-03-24 02:52:00,
2013-03-23 20:01:00,58.0,15.0,29.82,East,90,5.0,6.0,18,0.00,,,0.00,,2013-03-24 03:01:00,
2013-03-23 20:21:00,58.0,15.0,29.82,East,97,5.0,7.0,18,0.00,,,0.00,,2013-03-24 03:21:00,
2013-03-23 20:32:00,58.0,15.0,29.82,ESE,112,3.0,5.0,18,0.00,,,0.00,,2013-03-24 03:32:00,
2013-03-23 20:53:00,57.0,14.0,29.82,ESE,112,3.0,5.0,18,0.00,,,0.00,,2013-03-24 03:53:00,
2013-03-23 21:02:00,57.0,14.0,29.82,SE,135,3.0,7.0,18,0.00,,,0.00,,2013-03-24 04:02:00,
2013-03-23 21:22:00,57.0,14.0,29.82,SE,135,1.0,3.0,18,0.00,,,0.00,,2013-03-24 04:22:00,
2013-03-23 21:32:00,55.0,14.0,29.82,SE,135,2.0,3.0,19,0.00,,,0.00,,2013-03-24 04:32:00,
2013-03-23 21:42:00,55.0,14.0,29.82,SE,135,2.0,3.0,19,0.00,,,0.00,,2013-03-24 04:42:00,
2013-03-23 21:52:00,54.0,13.0,29.82,SE,135,1.0,2.0,19,0.00,,,0.00,,2013-03-24 04:52:00,
2013-03-23 22:02:00,54.0,13.0,29.85,SE,135,0.0,0.0,19,0.00,,,0.00,,2013-03-24 05:02:00,
2013-03-23 22:11:00,54.0,13.0,29.85,SE,135,0.0,0.0,19,0.00,,,0.00,,2013-03-24 05:11:00,
2013-03-23 22:22:00,56.0,13.0,29.85,SE,135,1.0,3.0,18,0.00,,,0.00,,2013-03-24 05:22:00,
2013-03-23 22:32:00,56.0,13.0,29.85,SE,135,1.0,3.0,18,0.00,,,0.00,,2013-03-24 05:32:00,
2013-03-23 22:41:00,56.0,13.0,29.85,SE,135,1.0,3.0,18,0.00,,,0.00,,2013-03-24 05:41:00,
2013-03-23 22:52:00,53.0,12.0,29.85,SE,135,0.0,3.0,19,0.00,,,0.00,,2013-03-24 05:52:00,
2013-03-23 23:01:00,53.0,12.0,29.85,SE,135,1.0,6.0,19,0.00,,,0.00,,2013-03-24 06:01:00,
2013-03-23 23:21:00,55.0,14.0,29.85,SE,135,0.0,2.0,19,0.00,,,0.00,,2013-03-24 06:21:00,
2013-03-23 23:32:00,55.0,14.0,29.85,SE,135,3.0,5.0,19,0.00,,,0.00,,2013-03-24 06:32:00,
2013-03-23 23:52:00,54.0,13.0,29.85,SSE,158,4.0,6.0,19,0.00,,,0.00,,2013-03-24 06:52:00,